Date,TemperatureHighF,TemperatureAvgF,TemperatureLowF,DewpointHighF,DewpointAvgF,DewpointLowF,HumidityHigh,HumidityAvg,HumidityLow,PressureMaxIn,PressureMinIn,WindSpeedMaxMPH,WindSpeedAvgMPH,GustSpeedMaxMPH,PrecipitationSumIn
2014-2-1,41.0,36.0,31.1,40.7,35.6,30.4,100,98,88,29.58,29.32,6,2,14,0.80
2014-2-2,32.4,26.4,19.6,31.9,25.3,17.8,100,96,84,29.75,29.49,3,0,9,0.01
2014-2-3,32.7,19.3,9.0,20.9,15.1,8.8,100,85,58,29.89,29.71,0,0,0,0.05
2014-2-4,27.0,18.6,8.8,22.1,17.2,8.6,100,95,75,29.91,29.41,0,0,0,0.00
2014-2-5,31.1,22.0,16.9,28.1,21.2,16.1,100,96,79,29.91,29.30,7,3,19,0.00
2014-2-6,18.1,10.3,-2.2,17.9,6.6,-5.2,100,85,63,29.97,29.89,9,3,17,0.00
2014-2-7,18.7,4.7,-6.3,4.3,-2.2,-7.9,97,75,48,29.97,29.87,8,2,19,0.00
2014-2-8,25.2,15.1,1.6,21.7,11.6,-0.8,99,86,69,29.87,29.63,6,1,14,0.00
2014-2-9,27.9,19.6,9.0,23.4,16.8,7.2,100,89,68,29.77,29.58,10,4,23,0.00
2014-2-10,16.9,6.4,-2.6,7.4,1.4,-5.7,100,81,57,29.94,29.75,6,2,12,0.00
2014-2-11,23.2,3.8,-13.0,9.5,-2.4,-15.4,93,77,49,30.01,29.90,5,1,11,0.00
2014-2-12,37.8,12.4,-10.8,14.6,3.0,-13.0,92,70,37,29.91,29.55,4,1,10,0.01
2014-2-13,39.0,22.7,0.9,24.2,11.6,-0.1,99,66,35,29.54,29.11,6,2,14,0.00
2014-2-14,34.2,21.2,14.9,28.8,18.0,12.2,100,87,70,29.37,29.09,15,4,26,0.00
2014-2-15,32.4,20.6,12.4,20.8,14.9,9.6,100,80,55,29.62,29.36,6,3,16,0.01
2014-2-16,30.4,22.7,14.9,24.6,20.7,14.5,100,92,70,29.80,29.44,8,3,17,0.00
2014-2-17,35.2,25.0,13.5,35.0,23.0,13.3,100,92,71,29.81,29.18,9,3,23,0.01
2014-2-18,49.5,40.9,29.3,35.8,32.9,29.1,100,75,52,29.58,29.27,9,5,27,0.12
2014-2-19,50.2,40.8,31.6,37.9,34.3,30.3,100,78,62,29.58,29.20,10,3,22,0.00
2014-2-20,59.9,47.0,35.4,59.5,45.4,32.5,100,94,77,29.53,28.92,15,6,40,0.61
2014-2-21,44.6,38.4,32.5,37.5,28.9,19.0,99,71,38,29.43,29.11,12,7,35,0.01
2014-2-22,52.2,41.4,33.1,36.1,32.0,25.2,100,70,50,29.55,29.38,7,3,16,0.00
2014-2-23,35.6,29.9,23.5,35.4,25.1,17.5,100,83,60,29.72,29.52,7,3,19,0.01
2014-2-24,32.4,24.6,18.3,18.9,15.0,11.4,84,67,45,29.79,29.70,11,5,22,0.00
2014-2-25,28.0,22.6,16.2,19.7,16.5,8.9,87,77,67,29.73,29.62,9,5,24,0.00
2014-2-26,22.8,14.1,5.2,9.7,3.8,0.3,82,64,45,29.73,29.33,13,6,22,0.00
2014-2-27,21.7,15.5,5.5,12.1,3.7,-2.0,82,60,38,29.69,29.23,14,6,33,0.00
2014-2-28,37.4,20.9,4.1,14.7,7.2,0.7,92,59,31,29.74,29.56,7,3,17,0.00